| time (UTC) | temp F | wind direction | speed knots | gust knots | rain 1hr in | rain 24hr in | rain mn in | humidity % | barometer mb |
| 20260507203129 | 62 | 98 | 3.5 | 4.3 | 0.00 | 0.31 | 0.00 | 86 | 1014.7 |
| 20260507203008 | 61 | 107 | 3.5 | 5.2 | 0.00 | 0.06 | 0.06 | 86 | 1014.3 |
| 20260507202126 | 62 | 102 | 3.5 | 5.2 | 0.00 | 0.31 | 0.00 | 86 | 1014.6 |
| 20260507201508 | 61 | 101 | 3.5 | 6.1 | 0.00 | 0.06 | 0.06 | 85 | 1014.4 |
| 20260507201133 | 62 | 79 | 3.5 | 6.1 | 0.00 | 0.31 | 0.00 | 86 | 1014.7 |
| 20260507200136 | 62 | 105 | 4.3 | 6.1 | 0.00 | 0.31 | 0.00 | 86 | 1014.8 |
| 20260507200012 | 61 | 110 | 4.3 | 6.1 | 0.00 | 0.06 | 0.06 | 85 | 1014.4 |
| 20260507195123 | 62 | 115 | 4.3 | 6.1 | 0.00 | 0.31 | 0.00 | 85 | 1014.6 |
| 20260507194524 | 62 | 107 | 4.3 | 7.8 | 0.00 | 0.06 | 0.06 | 84 | 1014.3 |
| 20260507194122 | 63 | 85 | 5.2 | 8.7 | 0.00 | 0.31 | 0.00 | 85 | 1014.6 |
| 20260507193126 | 63 | 122 | 5.2 | 7.0 | 0.00 | 0.31 | 0.00 | 86 | 1014.5 |
| 20260507193026 | 62 | 98 | 4.3 | 7.0 | 0.00 | 0.06 | 0.06 | 86 | 1014.1 |
| 20260507192157 | 63 | 95 | 3.5 | 7.0 | 0.00 | 0.31 | 0.00 | 87 | 1014.6 |
| 20260507191516 | 62 | 98 | 4.3 | 7.8 | 0.00 | 0.06 | 0.06 | 87 | 1014.0 |
| 20260507190148 | 62 | 100 | 3.5 | 5.2 | 0.00 | 0.31 | 0.00 | 86 | 1014.3 |
| 20260507190028 | 62 | 101 | 3.5 | 5.2 | 0.00 | 0.06 | 0.06 | 85 | 1013.9 |
| 20260507185204 | 63 | 98 | 3.5 | 7.0 | 0.00 | 0.31 | 0.00 | 84 | 1014.3 |
| 20260507184511 | 62 | 105 | 4.3 | 10.4 | 0.00 | 0.06 | 0.06 | 82 | 1013.9 |
| 20260507184149 | 63 | 118 | 6.1 | 10.4 | 0.00 | 0.31 | 0.00 | 81 | 1014.2 |
| 20260507183142 | 63 | 104 | 6.1 | 7.8 | 0.00 | 0.31 | 0.00 | 80 | 1014.1 |
| 20260507183016 | 62 | 112 | 6.1 | 7.8 | 0.00 | 0.06 | 0.06 | 79 | 1013.7 |
| 20260507182201 | 63 | 95 | 6.1 | 7.8 | 0.00 | 0.47 | 0.00 | 78 | 1013.9 |
| 20260507181523 | 63 | 97 | 5.2 | 7.0 | 0.00 | 0.07 | 0.06 | 78 | 1013.6 |
| 20260507181145 | 63 | 103 | 5.2 | 7.0 | 0.00 | 0.47 | 0.00 | 78 | 1013.9 |
| 20260507180151 | 64 | 119 | 5.2 | 7.8 | 0.00 | 0.47 | 0.00 | 77 | 1013.9 |
| 20260507180023 | 63 | 117 | 5.2 | 7.8 | 0.00 | 0.07 | 0.06 | 76 | 1013.4 |
| 20260507175151 | 64 | 88 | 5.2 | 7.8 | 0.00 | 0.47 | 0.00 | 74 | 1013.7 |
| 20260507174524 | 64 | 108 | 6.1 | 9.6 | 0.00 | 0.08 | 0.06 | 72 | 1013.2 |
| 20260507174149 | 65 | 110 | 6.1 | 11.3 | 0.00 | 0.47 | 0.00 | 72 | 1013.5 |
| 20260507173147 | 65 | 96 | 7.8 | 10.4 | 0.00 | 0.47 | 0.00 | 71 | 1013.5 |
| 20260507173032 | 65 | 94 | 7.0 | 10.4 | 0.00 | 0.09 | 0.06 | 71 | 1013.1 |
| 20260507172143 | 66 | 102 | 6.1 | 11.3 | 0.00 | 0.55 | 0.00 | 74 | 1013.5 |
| 20260507171514 | 65 | 90 | 7.8 | 11.3 | 0.00 | 0.10 | 0.06 | 71 | 1013.1 |
| 20260507171127 | 66 | 108 | 7.8 | 11.3 | 0.00 | 0.55 | 0.00 | 70 | 1013.5 |
| 20260507170133 | 67 | 102 | 5.2 | 10.4 | 0.00 | 0.55 | 0.00 | 69 | 1013.4 |
| 20260507170015 | 66 | 101 | 5.2 | 10.4 | 0.00 | 0.11 | 0.06 | 68 | 1013.1 |
| 20260507165150 | 67 | 112 | 7.8 | 10.4 | 0.00 | 0.55 | 0.00 | 68 | 1013.4 |
| 20260507164525 | 66 | 86 | 7.0 | 12.2 | 0.00 | 0.11 | 0.06 | 67 | 1012.9 |
| 20260507164137 | 67 | 87 | 10.4 | 12.2 | 0.00 | 0.55 | 0.00 | 66 | 1013.3 |
| 20260507163144 | 68 | 79 | 7.0 | 10.4 | 0.00 | 0.55 | 0.00 | 64 | 1013.2 |
| 20260507163027 | 67 | 91 | 7.0 | 10.4 | 0.00 | 0.11 | 0.06 | 62 | 1012.8 |
| 20260507161524 | 67 | 116 | 7.8 | 10.4 | 0.00 | 0.11 | 0.06 | 62 | 1012.8 |
| 20260507161151 | 68 | 88 | 7.0 | 11.3 | 0.00 | 0.55 | 0.00 | 62 | 1013.2 |
| 20260507160155 | 68 | 76 | 8.7 | 11.3 | 0.00 | 0.55 | 0.00 | 61 | 1013.1 |
| 20260507160020 | 67 | 103 | 8.7 | 11.3 | 0.00 | 0.11 | 0.06 | 58 | 1012.7 |
| 20260507155210 | 68 | 91 | 7.8 | 11.3 | 0.00 | 0.55 | 0.00 | 57 | 1013.2 |
| 20260507154516 | 68 | 91 | 8.7 | 11.3 | 0.00 | 0.11 | 0.06 | 57 | 1012.8 |
| 20260507154222 | 68 | 105 | 8.7 | 11.3 | 0.00 | 0.55 | 0.00 | 59 | 1013.2 |
| 20260507153011 | 68 | 87 | 7.8 | 11.3 | 0.00 | 0.11 | 0.06 | 60 | 1012.9 |
| 20260507151529 | 68 | 98 | 9.6 | 13.0 | 0.00 | 0.11 | 0.06 | 58 | 1013.0 |
| 20260507150027 | 68 | 89 | 10.4 | 13.9 | 0.00 | 0.11 | 0.06 | 62 | 1013.0 |
| 20260507144524 | 68 | 84 | 10.4 | 14.8 | 0.00 | 0.11 | 0.06 | 66 | 1013.0 |
| 20260507143021 | 69 | 103 | 10.4 | 14.8 | 0.00 | 0.13 | 0.06 | 61 | 1013.0 |
| 20260507141520 | 69 | 105 | 11.3 | 16.5 | 0.00 | 0.16 | 0.06 | 60 | 1013.0 |
| 20260507140020 | 69 | 83 | 8.7 | 12.2 | 0.00 | 0.16 | 0.06 | 58 | 1012.9 |
| 20260507134527 | 70 | 79 | 7.8 | 12.2 | 0.00 | 0.16 | 0.06 | 58 | 1013.0 |
| 20260507133026 | 70 | 73 | 9.6 | 12.2 | 0.00 | 0.16 | 0.06 | 58 | 1012.9 |
| 20260507131528 | 71 | 357 | 2.6 | 8.7 | 0.00 | 0.16 | 0.06 | 56 | 1013.0 |
| 20260507130030 | 71 | 329 | 1.7 | 7.0 | 0.00 | 0.16 | 0.06 | 58 | 1013.1 |
| 20260507124525 | 69 | 98 | 3.5 | 8.7 | 0.00 | 0.16 | 0.06 | 58 | 1013.1 |
| 20260507123033 | 70 | 89 | 5.2 | 7.8 | 0.00 | 0.16 | 0.06 | 61 | 1013.2 |
| 20260507121537 | 71 | 327 | 2.6 | 5.2 | 0.00 | 0.16 | 0.06 | 58 | 1013.4 |
| 20260507120004 | 71 | 6 | 0.9 | 4.3 | 0.00 | 0.16 | 0.06 | 55 | 1013.4 |
| 20260507114505 | 71 | 252 | 1.7 | 5.2 | 0.00 | 0.16 | 0.06 | 57 | 1013.5 |
| 20260507113004 | 70 | 330 | 1.7 | 4.3 | 0.00 | 0.16 | 0.06 | 55 | 1013.6 |
| 20260507111504 | 72 | 121 | 1.7 | 4.3 | 0.00 | 0.16 | 0.06 | 52 | 1013.6 |
| 20260507110004 | 70 | 219 | 0.0 | 3.5 | 0.00 | 0.16 | 0.06 | 55 | 1013.7 |
| 20260507104505 | 70 | 30 | 2.6 | 5.2 | 0.00 | 0.16 | 0.06 | 60 | 1013.8 |
| 20260507103008 | 70 | 313 | 0.9 | 5.2 | 0.00 | 0.16 | 0.06 | 57 | 1014.0 |
| 20260507101504 | 69 | 89 | 1.7 | 5.2 | 0.00 | 0.16 | 0.06 | 56 | 1014.1 |
| 20260507100006 | 71 | 358 | 0.9 | 2.6 | 0.00 | 0.16 | 0.06 | 56 | 1014.3 |
| 20260507094508 | 70 | 77 | 0.0 | 2.6 | 0.00 | 0.16 | 0.06 | 55 | 1014.3 |
| 20260507093006 | 69 | 195 | 0.9 | 5.2 | 0.00 | 0.16 | 0.06 | 59 | 1014.3 |
| 20260507091507 | 67 | 141 | 0.0 | 2.6 | 0.00 | 0.16 | 0.06 | 65 | 1014.2 |
| 20260507090006 | 66 | 257 | 3.5 | 5.2 | 0.00 | 0.16 | 0.06 | 62 | 1014.2 |
| 20260507084509 | 67 | 319 | 0.0 | 1.7 | 0.00 | 0.16 | 0.06 | 67 | 1013.9 |
| 20260507083022 | 66 | 330 | 2.6 | 5.2 | 0.00 | 0.16 | 0.06 | 66 | 1013.9 |
| 20260507081508 | 66 | 248 | 1.7 | 4.3 | 0.00 | 0.16 | 0.06 | 65 | 1013.7 |
| 20260507080011 | 67 | 0.0 | 1.7 | 0.00 | 0.16 | 0.06 | 61 | 1013.6 | |
| 20260507074524 | 66 | 308 | 0.9 | 1.7 | 0.00 | 0.16 | 0.06 | 68 | 1013.6 |
| 20260507073013 | 65 | 257 | 0.9 | 3.5 | 0.00 | 0.16 | 0.06 | 70 | 1013.6 |
| 20260507071513 | 63 | 274 | 0.9 | 1.7 | 0.00 | 0.16 | 0.06 | 69 | 1013.6 |
| 20260507070014 | 63 | 232 | 0.9 | 2.6 | 0.00 | 0.16 | 0.06 | 74 | 1013.5 |
| 20260507064516 | 61 | 256 | 1.7 | 4.3 | 0.00 | 0.16 | 0.06 | 77 | 1013.4 |
| 20260507063009 | 60 | 276 | 3.5 | 5.2 | 0.00 | 0.17 | 0.06 | 76 | 1013.4 |
| 20260507061514 | 60 | 250 | 2.6 | 5.2 | 0.00 | 0.17 | 0.06 | 77 | 1013.3 |
| 20260507060019 | 59 | 232 | 1.7 | 4.3 | 0.00 | 0.17 | 0.06 | 77 | 1013.0 |
| 20260507054515 | 59 | 219 | 1.7 | 4.3 | 0.00 | 0.17 | 0.06 | 78 | 1013.1 |
| 20260507053019 | 57 | 213 | 0.9 | 2.6 | 0.00 | 0.18 | 0.06 | 81 | 1013.1 |
| 20260507051518 | 56 | 148 | 0.0 | 1.7 | 0.00 | 0.22 | 0.06 | 82 | 1012.8 |
| 20260507050012 | 55 | 146 | 0.9 | 0.9 | 0.00 | 0.23 | 0.06 | 83 | 1012.6 |
| 20260507044521 | 54 | 157 | 0.0 | 0.9 | 0.00 | 0.24 | 0.06 | 83 | 1012.4 |
| 20260507043031 | 54 | 143 | 0.0 | 1.7 | 0.00 | 0.27 | 0.06 | 81 | 1012.2 |
| 20260507041503 | 55 | 146 | 0.9 | 1.7 | 0.00 | 0.37 | 0.06 | 81 | 1012.2 |
| 20260507040016 | 0 | 0.0 | 0.0 | 0.00 | 0.46 | 0.06 | 1012.0 | ||
| 20260507034515 | 56 | 1.7 | 2.6 | 0.00 | 0.48 | 0.06 | 79 | 1011.8 | |
| 20260507033024 | 57 | 208 | 0.9 | 2.6 | 0.00 | 0.48 | 0.06 | 80 | 1011.8 |
| 20260507031523 | 57 | 237 | 1.7 | 2.6 | 0.00 | 0.48 | 0.06 | 79 | 1011.8 |
| 20260507030023 | 56 | 214 | 0.0 | 1.7 | 0.00 | 0.49 | 0.06 | 80 | 1011.8 |
| 20260507024504 | 56 | 248 | 1.7 | 3.5 | 0.00 | 0.52 | 0.06 | 81 | 1011.6 |
| 20260507023023 | 57 | 276 | 0.9 | 3.5 | 0.00 | 0.62 | 0.06 | 82 | 1011.8 |
| 20260507021522 | 57 | 236 | 2.6 | 5.2 | 0.00 | 0.62 | 0.06 | 81 | 1011.8 |
| 20260507020018 | 57 | 241 | 1.7 | 5.2 | 0.00 | 0.62 | 0.06 | 81 | 1011.9 |
| 20260507014527 | 57 | 243 | 2.6 | 4.3 | 0.00 | 0.62 | 0.06 | 80 | 1011.7 |
| 20260507013033 | 58 | 239 | 0.9 | 2.6 | 0.00 | 0.62 | 0.06 | 80 | 1011.7 |
| 20260507011514 | 58 | 165 | 1.7 | 6.1 | 0.00 | 0.63 | 0.06 | 79 | 1011.5 |
| 20260507010006 | 58 | 227 | 1.7 | 8.7 | 0.00 | 0.66 | 0.06 | 79 | 1011.4 |
| 20260507004527 | 58 | 172 | 4.3 | 9.6 | 0.00 | 0.67 | 0.06 | 79 | 1011.5 |
| 20260507003019 | 58 | 166 | 3.5 | 7.8 | 0.00 | 0.67 | 0.06 | 81 | 1011.5 |
| 20260507001516 | 58 | 167 | 4.3 | 8.7 | 0.00 | 0.67 | 0.06 | 81 | 1011.4 |
| 20260507000012 | 58 | 225 | 5.2 | 7.8 | 0.00 | 0.67 | 0.06 | 82 | 1011.6 |
| 20260506234512 | 57 | 188 | 3.5 | 7.0 | 0.02 | 0.67 | 0.06 | 83 | 1011.6 |
| 20260506233007 | 57 | 149 | 2.6 | 7.0 | 0.03 | 0.67 | 0.06 | 84 | 1011.7 |
| 20260506231525 | 57 | 204 | 1.7 | 4.3 | 0.04 | 0.66 | 0.05 | 84 | 1011.9 |
| 20260506230024 | 58 | 148 | 3.5 | 7.0 | 0.05 | 0.66 | 0.05 | 83 | 1011.9 |
| 20260506224525 | 58 | 206 | 2.6 | 6.1 | 0.03 | 0.65 | 0.03 | 83 | 1012.0 |
| 20260506223016 | 59 | 30 | 2.6 | 6.1 | 0.02 | 0.63 | 0.02 | 82 | 1012.0 |
| 20260506221511 | 59 | 195 | 3.5 | 6.1 | 0.00 | 0.62 | 0.00 | 82 | 1011.9 |
| 20260506220028 | 60 | 189 | 2.6 | 7.0 | 0.00 | 0.61 | 0.00 | 80 | 1011.9 |
| 20260506214528 | 61 | 203 | 4.3 | 7.8 | 0.00 | 0.61 | 0.61 | 78 | 1012.0 |
| 20260506213026 | 61 | 186 | 4.3 | 10.4 | 0.00 | 0.61 | 0.61 | 78 | 1011.8 |
| 20260506211524 | 61 | 212 | 4.3 | 10.4 | 0.00 | 0.61 | 0.61 | 79 | 1011.7 |
| 20260506210020 | 61 | 217 | 5.2 | 10.4 | 0.00 | 0.61 | 0.61 | 79 | 1011.7 |
| 20260506204518 | 61 | 196 | 5.2 | 9.6 | 0.00 | 0.61 | 0.61 | 81 | 1011.6 |